Butler, PA

7:43 PM EDT on October 17, 2019 (GMT -0400)
Butler County-Scholter

Weather History for KBTP - June, 2019

Change the Weather History Date:

Monday, June 3, 2019

  Actual Average Record
Temperature  
Mean Temperature 54 °F -  
Max Temperature 62 °F 69 °F 88 °F (1978)
Min Temperature 44 °F 51 °F 34 °F (1986)
Degree Days  
Heating Degree Days 11    
Growing Degree Days 4 (Base 50)    
Moisture  
Dew Point 39 °F    
Average Humidity 63    
Maximum Humidity 97    
Minimum Humidity 38    
Precipitation  
Precipitation 0.00 in - - ()
Sea Level Pressure  
Sea Level Pressure 30.09 in    
Wind  
Wind Speed 3 mph (NW)    
Max Wind Speed 9 mph    
Max Gust Speed 17 mph    
Visibility 10 miles    
Events      
Averages and records for this station are not official NWS values.
T = Trace of Precipitation, MM = Missing Value Source: NWS Daily Summary

Daily Weather History Graph

Daily Weather History Graph

Search for Another Location

Airport or City:

Astronomy

Jun. 03, 2019 Rise Set
Actual Time 5:49 AM EDT 8:46 PM EDT
Civil Twilight 5:17 AM EDT 9:19 PM EDT
Nautical Twilight 4:35 AM EDT 10:00 PM EDT
Astronomical Twilight 3:47 AM EDT 10:49 PM EDT
Moon 6:09 AM EDT (6/3) 9:09 PM EDT (6/3)
Length of Visible Light 16h 02m
Length of Day
14h 56m
New Moon, 0% of the Moon is Illuminated
Jun 3
New Moon
Jun 10
First Quarter
Jun 17
Full
Jun 25
Last Quarter
Jul 2
New

Hourly Weather History & Observations

Time (EDT) Temp. Dew Point Humidity Pressure Visibility Wind Dir Wind Speed Gust Speed Precip Events Conditions
12:56 AM 46.0 °F 45.0 °F 96% 29.94 in 10.0 mi Calm Calm - N/A   Scattered Clouds
1:56 AM 46.9 °F 46.0 °F 97% 29.93 in 10.0 mi West 3.5 mph - N/A   Overcast
2:56 AM 48.0 °F 46.0 °F 93% 29.93 in 10.0 mi Calm Calm - N/A   Scattered Clouds
3:56 AM 48.9 °F 44.1 °F 83% 29.95 in 10.0 mi WNW 3.5 mph - N/A   Partly Cloudy
4:56 AM 48.0 °F 44.1 °F 86% 29.97 in 10.0 mi West 3.5 mph - N/A   Mostly Cloudy
5:56 AM 48.0 °F 43.0 °F 83% 30.00 in 10.0 mi WNW 4.6 mph - N/A   Scattered Clouds
6:56 AM 48.0 °F 44.1 °F 86% 30.04 in 10.0 mi Calm Calm - N/A   Clear
7:56 AM 48.9 °F 39.0 °F 69% 30.07 in 10.0 mi Variable 4.6 mph - N/A   Clear
8:56 AM 51.1 °F 39.0 °F 63% 30.10 in 10.0 mi NW 8.1 mph - N/A   Clear
9:56 AM 54.0 °F 39.0 °F 57% 30.12 in 10.0 mi Variable 6.9 mph - N/A   Mostly Cloudy
10:56 AM 55.0 °F 37.9 °F 53% 30.13 in 10.0 mi Variable 5.8 mph - N/A   Clear
11:56 AM 57.0 °F 37.0 °F 47% 30.14 in 10.0 mi NW 8.1 mph - N/A   Clear
12:56 PM 57.9 °F 37.0 °F 46% 30.15 in 10.0 mi NW 9.2 mph 16.1 mph N/A   Clear
1:56 PM 59.0 °F 37.0 °F 44% 30.14 in 10.0 mi Variable 5.8 mph 17.3 mph N/A   Clear
2:56 PM 61.0 °F 37.9 °F 42% 30.12 in 10.0 mi Variable 5.8 mph - N/A   Clear
3:56 PM 62.1 °F 36.0 °F 38% 30.11 in 10.0 mi Variable 3.5 mph - N/A   Partly Cloudy
4:56 PM 61.0 °F 36.0 °F 39% 30.12 in 10.0 mi NW 8.1 mph - N/A   Clear
5:56 PM 61.0 °F 36.0 °F 39% 30.14 in 10.0 mi Variable 6.9 mph - N/A   Clear
6:56 PM 60.1 °F 35.1 °F 39% 30.14 in 10.0 mi Calm Calm - N/A   Clear
7:56 PM 57.9 °F 35.1 °F 42% 30.14 in 10.0 mi NNW 4.6 mph - N/A   Clear
8:56 PM 54.0 °F 34.0 °F 47% 30.16 in 10.0 mi North 3.5 mph - N/A   Clear
9:56 PM 48.9 °F 37.9 °F 66% 30.17 in 10.0 mi Calm Calm - N/A   Clear
10:56 PM 46.9 °F 39.9 °F 77% 30.18 in 10.0 mi NNE 3.5 mph - N/A   Clear
11:56 PM 44.1 °F 39.0 °F 82% 30.18 in 10.0 mi Calm Calm - N/A   Clear